TIME,DELAY(SENSOR),PRES,T(CTD),SAL,OXYGEN,RAWTEMP,T(OPTODE),TCPHASE,TURBIDITY,TURBIDITY_GAIN,FLUOR,BETA,CDOM,ED411.5,ED443.8,ED489.6,PAR,COMP,TILT,TILTY(TILT),CHECK
1341924537,6468,269.3299865722656000,4.9145002365112305,34.9860992431640600,349.9101867675781000,761.4340820312500000,4.8860740661621090,34.1056900024414060,16,3,49,106,64,2147243739,2147557133,2147571437,2147361110,301,0,-12,41656
1341924598,6465,266.1700134277344000,4.9148001670837400,34.9855003356933600,350.0552978515625000,761.4293212890625000,4.8862438201904300,34.1007804870605500,16,3,48,102,64,2147246097,2147561389,2147570317,2147361393,1135,0,-12,31482
1341924659,6469,263.0100097656250000,4.9141001701354980,34.9860992431640600,349.9332885742187500,761.4282226562500000,4.8862838745117190,34.1047401428222660,16,3,48,105,64,2147245261,2147559482,2147569133,2147362194,3319,0,-12,34347
1341924720,6468,259.8500061035156000,4.9138998985290530,34.9859008789062500,350.0390930175781000,761.4302978515625000,4.8862090110778810,34.1013908386230500,16,3,49,102,64,2147244955,2147558033,2147571025,2147360050,2979,0,-12,7359
1341924781,6504,256.6600036621094000,4.9137997627258300,34.9858016967773440,350.0878906250000000,761.4348754882812000,4.8860468864440920,34.1001205444335940,16,3,48,106,64,2147244374,2147558518,2147570144,2147361192,2699,0,-12,24811
1341924843,6468,253.3699951171875000,4.9130997657775880,34.9864006042480500,350.1463928222656000,761.4420776367188000,4.8857941627502440,34.0980796813964840,16,3,48,105,64,2147242870,2147557987,2147571277,2147360772,2471,0,-12,38256
1341924904,6468,250.1600036621093800,4.9133000373840330,34.9859008789062500,350.1763000488281000,761.4473876953125000,4.8856091499328610,34.0971107482910160,16,3,50,108,64,2147243889,2147557938,2147572936,2147357489,2192,0,-12,27588
1341924965,6468,246.9100036621093800,4.9124999046325680,34.9863014221191400,350.0108032226562500,761.4550170898438000,4.8853440284729000,34.1028404235839840,16,3,48,103,65,2147241663,2147557051,2147573215,2147361092,1938,0,-12,38736
1341925026,6466,243.6900024414062500,4.9123997688293460,34.9863014221191400,350.0607910156250000,761.4622802734375000,4.8850879669189450,34.1013603210449200,16,3,49,102,64,2147240278,2147554938,2147572977,2147360809,1735,0,-12,57299
1341925089,6467,240.3999938964843800,4.9123997688293460,34.9860000610351560,350.1300964355469000,761.4699707031250000,4.8848190307617190,34.0992088317871100,16,3,49,105,64,2147244859,2147559190,2147572748,2147360648,1530,0,-12,31495
1341925154,6469,237.0099945068359400,4.9120998382568360,34.9860992431640600,350.2663879394531000,761.4755859375000000,4.8846230506896970,34.0947418212890600,16,3,49,104,64,2147243894,2147558211,2147571245,2147362217,1220,0,-12,40259
1341925217,6469,233.6900024414062500,4.9116001129150390,34.9863014221191400,350.1871948242187500,761.4832153320312000,4.8843560218811035,34.0976486206054700,16,3,50,105,64,2147244466,2147558957,2147569233,2147361357,941,0,-12,64853
1341925278,6469,230.5299987792968800,4.9112000465393070,34.9865989685058600,350.3024902343750000,761.4901733398438000,4.8841109275817870,34.0937614440918000,16,3,48,103,64,2147244840,2147556868,2147573923,2147361174,605,0,-12,65289
1341925341,6468,227.2700042724609400,4.9113001823425290,34.9861984252929700,350.1377868652344000,761.4951171875000000,4.8839440345764160,34.0994796752929700,16,3,48,107,64,2147241426,2147557878,2147572690,2147360050,300,0,-12,48053
1341925402,6466,224.1600036621093800,4.9113998413085940,34.9858016967773440,350.2015075683594000,761.5023193359375000,4.8836879730224610,34.0974006652832000,16,3,48,105,63,2147244425,2147558491,2147571820,2147359044,3517,0,-12,6554
1341925466,6467,220.8899993896484400,4.9106001853942870,34.9864006042480500,350.2603149414062500,761.5084228515625000,4.8834719657897950,34.0953407287597660,16,3,49,103,64,2147242134,2147555126,2147573823,2147361576,3184,0,-12,48711
1341925527,6467,217.7500000000000000,4.9106001853942870,34.9861984252929700,350.3259887695312500,761.5134277343750000,4.8832988739013670,34.0932807922363300,16,3,48,104,64,2147243363,2147558102,2147574975,2147359771,2812,0,-12,43203
1341925590,6468,214.5800018310547000,4.9102001190185550,34.9864006042480500,350.3131103515625000,761.5195922851562000,4.8830828666687010,34.0939216613769500,16,3,48,112,64,2147244858,2147558906,2147574326,2147360822,2511,0,-12,51450
1341925651,6469,211.4799957275390600,4.9106001853942870,34.9859008789062500,350.3341979980469000,761.5211181640625000,4.8830299377441410,34.0931587219238300,16,3,48,105,64,2147241828,2147558458,2147572676,2147362162,2313,0,-12,12265
1341925714,6468,208.3300018310547000,4.9100999832153320,34.9861984252929700,350.3006896972656000,761.5294799804688000,4.8827338218688965,34.0946502685546900,16,3,49,105,64,2147245252,2147556507,2147573393,2147361837,2059,0,-12,45087
1341925775,6504,205.2899932861328000,4.9100999832153320,34.9860000610351560,350.2697143554687500,761.5369262695312000,4.8824748992919920,34.0957908630371100,16,3,48,109,64,2147244187,2147559473,2147574166,2147362166,1828,0,-12,52440
1341925838,6467,202.1900024414062500,4.9099998474121090,34.9858016967773440,350.3200073242187500,761.5410156250000000,4.8823342323303220,34.0943412780761700,16,3,50,106,64,2147243364,2147558659,2147577786,2147362001,1606,0,-12,32085
1341925899,6468,199.2200012207031200,4.9096999168396000,34.9860992431640600,350.4063110351562500,761.5410766601562000,4.8823299407958980,34.0911407470703100,16,3,49,108,64,2147242230,2147556337,2147578106,2147360342,1367,0,-12,54244
1341925962,6467,196.1699981689453000,4.9092998504638670,34.9863014221191400,350.3255004882812500,761.5455932617188000,4.8821721076965330,34.0942382812500000,16,3,50,106,63,2147244584,2147560584,2147577270,2147359249,1135,0,-12,36738
1341926023,6468,193.2799987792968800,4.9095001220703125,34.9859008789062500,350.1785888671875000,761.5498046875000000,4.8820247650146480,34.0989189147949200,16,3,50,106,64,2147245425,2147559839,2147581375,2147359113,922,0,-12,58288
1341926087,6467,190.2799987792968800,4.9092001914978030,34.9859008789062500,350.3352050781250000,761.5562133789062000,4.8818001747131350,34.0940284729003900,16,3,50,105,64,2147245448,2147563103,2147584520,2147362774,641,0,-12,5218
1341926148,6467,187.4199981689453000,4.9091000556945800,34.9860000610351560,350.2356872558594000,761.5604858398438000,4.8816471099853520,34.0972709655761700,13,3,49,105,64,2147243757,2147560900,2147586106,2147363689,386,0,-12,4071
1341926211,6468,184.4900054931640600,4.9085001945495605,34.9864006042480500,350.2543029785156000,761.5662841796875000,4.8814449310302730,34.0966911315918000,16,3,50,108,65,2147243405,2147562696,2147589421,2147365330,20,0,-12,64193
1341926272,6468,181.6799926757812500,4.9085998535156250,34.9861984252929700,350.2630004882812500,761.5693969726562000,4.8813381195068360,34.0965614318847660,16,3,50,107,64,2147245897,2147562322,2147586449,2147365110,3223,0,-12,56633
1341926335,6468,178.8300018310547000,4.9086999893188480,34.9860000610351560,350.3492126464844000,761.5695800781250000,4.8813319206237790,34.0939598083496100,12,3,48,112,64,2147243935,2147563030,2147592867,2147364328,2846,0,-12,41419
1341926396,6502,176.0899963378906200,4.9082999229431150,34.9861984252929700,350.1482849121094000,761.5745239257812000,4.8811612129211430,34.1007385253906250,16,3,49,108,64,2147244657,2147564026,2147597416,2147363761,2681,0,-12,27354
1341926459,6466,173.3000030517578000,4.9084000587463380,34.9863014221191400,350.2583007812500000,761.5739135742188000,4.8811798095703125,34.0969200134277340,13,3,48,111,64,2147242947,2147562930,2147608968,2147365800,2470,0,-12,24026
1341926520,6467,170.6399993896484400,4.9081001281738280,34.9864006042480500,350.1462097167969000,761.5775146484375000,4.8810582160949710,34.1008605957031250,16,3,49,108,64,2147242966,2147562308,2147604026,2147361859,2253,0,-12,36597
1341926583,6468,167.9400024414062500,4.9084000587463380,34.9860992431640600,350.0864868164062500,761.5828247070312000,4.8808689117431640,34.1027183532714840,16,3,50,117,65,2147247035,2147562989,2147596877,2147363017,2025,0,-12,53007
1341926644,6504,165.3300018310547000,4.9085998535156250,34.9855995178222660,350.1697998046875000,761.5844726562500000,4.8808078765869140,34.1002502441406250,16,3,49,107,64,2147242106,2147562898,2147598756,2147362756,1815,0,-12,47811
1341926708,6467,162.6100006103515600,4.9081001281738280,34.9860992431640600,350.0585021972656000,761.5844726562500000,4.8808078765869140,34.1039314270019500,16,3,49,112,64,2147244424,2147562248,2147599839,2147363611,1568,0,-12,14417
1341926769,6468,160.0399932861328000,4.9077000617980960,34.9864997863769500,349.9920959472656000,761.5828857421875000,4.8808650970458980,34.1059608459472660,16,3,49,110,64,2147242490,2147561736,2147600918,2147366166,1381,0,-12,11546
1341926832,6469,157.3999938964843800,4.9085001945495605,34.9858016967773440,349.9288024902344000,761.5789794921875000,4.8810019493103030,34.1082496643066400,16,3,50,114,64,2147245480,2147562829,2147608461,2147365741,1196,0,-12,11107
1341926893,6469,154.8800048828125000,4.9081001281738280,34.9860992431640600,350.0036010742187500,761.5841064453125000,4.8808250427246090,34.1055717468261700,16,3,50,112,64,2147245471,2147562189,2147612516,2147365828,1012,0,-12,12110
1341926956,6469,152.3099975585937500,4.9084000587463380,34.9859008789062500,350.0380859375000000,761.5828857421875000,4.8808650970458980,34.1044883728027340,16,3,50,114,66,2147244854,2147563862,2147619761,2147367167,785,0,-12,9577
1341927017,6468,149.8899993896484400,4.9081997871398930,34.9860000610351560,349.8507995605469000,761.5855102539062000,4.8807749748229980,34.1110115051269500,16,3,49,112,65,2147243689,2147567226,2147621928,2147366372,564,0,-12,18119
1341927108,6467,145.5899963378906200,4.9071998596191410,34.9866981506347660,349.8388061523437500,761.6055297851562000,4.8800749778747560,34.1115112304687500,16,3,48,119,64,2147242404,2147567949,2147635168,2147369659,3524,0,-12,50422
1341927169,6466,141.8899993896484400,4.9081001281738280,34.9855003356933600,349.8026123046875000,761.6074829101562000,4.8800029754638670,34.1129684448242200,16,3,50,112,64,2147247227,2147568127,2147644297,2147372045,3221,0,-12,9158
1341927232,6468,138.0700073242187500,4.9081001281738280,34.9863014221191400,349.6854858398437500,761.5906982421875000,4.8805937767028810,34.1167411804199200,16,3,49,115,64,2147245700,2147566184,2147651245,2147372479,2837,0,-12,37914
1341927293,6466,134.4199981689453000,4.9088001251220700,34.9858016967773440,349.7073059082031000,761.5789184570312000,4.8810057640075680,34.1156883239746100,16,3,49,115,64,2147241773,2147571153,2147666728,2147370925,2586,0,-12,14093
1341927357,6467,130.6300048828125000,4.9086999893188480,34.9859008789062500,349.5631103515625000,761.5745239257812000,4.8811612129211430,34.1204185485839840,16,3,49,118,65,2147243117,2147576163,2147696287,2147378280,2405,0,-12,11510
1341927418,6468,127.0999984741211000,4.9106001853942870,34.9855995178222660,349.4726867675781000,761.5277099609375000,4.8827967643737790,34.1223297119140600,16,3,50,118,64,2147247917,2147574308,2147686284,2147377910,2181,0,-12,30712
1341927481,6467,123.5199966430664000,4.9116997718811035,34.9858016967773440,349.3801879882812500,761.4924926757812000,4.8840308189392090,34.1250801086425800,11,3,48,121,65,2147243725,2147571478,2147691615,2147376703,1949,0,-12,11759
1341927542,6503,120.0999984741211000,4.9134998321533200,34.9850997924804700,349.2403869628906000,761.4534301757812000,4.8853969573974610,34.1290893554687500,16,3,50,125,64,2147242175,2147577778,2147699144,2147375793,1765,0,-12,12816
1341927605,6467,116.5800018310546900,4.9168000221252440,34.9854011535644500,349.2420043945312500,761.3489990234375000,4.8890547752380370,34.1267700195312500,13,3,50,121,65,2147245731,2147580566,2147719482,2147379808,1558,0,-12,50946
1341927666,6466,113.2200012207031200,4.9194002151489260,34.9852981567382800,349.2095947265625000,761.2670288085938000,4.8919258117675780,34.1263885498046900,14,3,49,126,64,2147243908,2147582550,2147735350,2147384954,1378,0,-12,17721
1341927729,6467,109.8399963378906200,4.9233999252319340,34.9854011535644500,348.9772949218750000,761.1558227539062000,4.8958191871643070,34.1318092346191400,17,3,50,122,66,2147246870,2147583990,2147758898,2147390189,1258,0,-12,9099
1341927790,6468,106.6299972534179700,4.9260997772216800,34.9854011535644500,349.0621032714844000,761.0761718750000000,4.8986067771911620,34.1274185180664060,16,3,50,124,64,2147245530,2147588959,2147777188,2147391857,1078,0,-12,32994
1341927853,6468,103.3499984741211000,4.9289999008178710,34.9850997924804700,348.8988952636719000,760.9838867187500000,4.9018359184265140,34.1311492919921900,16,3,50,125,64,2147249292,2147590175,2147789160,2147393791,861,0,-12,63040
1341927914,6469,100.3300018310546900,4.9428000450134280,34.9846992492675800,348.7961120605469000,760.6251220703125000,4.9143939018249510,34.1276817321777340,16,3,51,123,65,2147247889,2147593219,2147806985,2147398088,452,0,-12,39883
1341927978,6467,97.1500015258789000,4.9640002250671390,34.9844017028808600,348.4479980468750000,760.0067138671875000,4.9360351562500000,34.1272201538085940,16,3,52,140,65,2147249869,2147595944,2147823414,2147403794,181,0,-12,28189
1341928039,6468,94.1399993896484400,4.9906001091003420,34.9854011535644500,348.2314147949219000,759.2575073242188000,4.9622459411621090,34.1195907592773440,16,3,54,133,66,2147248946,2147599793,2147845411,2147403798,3239,0,-12,26745
1341928103,6468,90.8799972534179700,5.0209999084472660,34.9852981567382800,347.8200988769531000,758.3074951171875000,4.9954681396484375,34.1147499084472660,16,3,58,145,66,2147250344,2147610408,2147881407,2147414162,2738,0,-12,60116
1341928164,6465,87.7200012207031200,5.0422000885009770,34.9865989685058600,347.9407043457031000,757.7993774414062000,5.0132288932800290,34.1007690429687500,24,3,62,135,66,2147250673,2147616086,2147931085,2147423162,2288,0,-12,19775
1341928228,6467,84.1800003051757800,5.0710000991821290,34.9861984252929700,347.8068847656250000,756.9923706054688000,5.0414371490478520,34.0891494750976560,16,3,66,140,64,2147255314,2147633298,2148017284,2147440831,2092,0,-12,11042
1341928289,6468,80.8099975585937500,5.0857000350952150,34.9870986938476560,347.9372863769531000,756.4829101562500000,5.0592370033264160,34.0749206542968750,16,3,70,137,65,2147258637,2147659003,2148161384,2147472973,1861,0,-12,59255
1341928353,6469,77.1500015258789000,5.1473999023437500,34.9870986938476560,347.6347045898437500,754.8430175781250000,5.1165080070495605,34.0526390075683600,23,3,79,162,66,2147266120,2147672794,2148197704,2147484054,1521,0,-12,61394
1341928414,6466,73.6100006103515600,5.1884999275207520,34.9893989562988300,347.7973022460937500,753.7283935546875000,5.1554150581359860,34.0256309509277340,15,3,79,154,67,2147275743,2147711350,2148355167,2147522646,1398,0,-12,49628
1341928478,6468,69.8199996948242200,5.2589001655578610,34.9911003112793000,347.8023986816406000,751.7601928710938000,5.2240681648254395,33.9869308471679700,16,3,98,146,66,2147283410,2147741965,2148476081,2147555670,1170,0,-12,1656
1341928539,6469,66.1500015258789000,5.2891001701354980,34.9934997558593750,348.0917968750000000,750.7218017578125000,5.2602629661560060,33.9568214416503900,28,3,109,158,66,2147299487,2147793449,2148656091,2147602802,766,0,-12,15676
1341928628,6469,61.3300018310546900,5.3253002166748050,34.9944000244140600,348.3013000488281000,749.7354125976562000,5.2946319580078125,33.9305000305175800,22,3,119,152,66,2147326769,2147887401,2148998573,2147695611,339,0,-12,16509
1341928689,6467,58.9599990844726560,5.3596000671386720,34.9949989318847660,348.6957092285156000,749.4492187500000000,5.3046040534973145,33.9115295410156250,17,3,126,158,66,2147355917,2147977471,2149340260,2147787199,2989,0,-12,6724
1341928753,6468,56.6399993896484400,5.3931999206542970,34.9972000122070300,348.7558898925781000,747.9058837890625000,5.3583412170410160,33.8794288635253900,18,3,137,156,66,2147396580,2148088173,2149694810,2147884155,2876,0,-12,59850
1341928814,6505,54.5999984741210940,5.3963999748229980,34.9968986511230500,349.2467041015625000,747.6002807617188000,5.3689799308776855,33.8571510314941400,17,3,138,161,64,2147409041,2148103460,2149704118,2147900114,2688,0,-12,43842
1341928902,6467,50.8699989318847660,5.4470000267028810,34.9978981018066400,349.5896911621094000,746.1412963867188000,5.4197440147399900,33.8172798156738300,25,3,145,196,65,2147489316,2148260785,2150108100,2148043158,2544,0,-12,56312
1341928963,6470,47.2900009155273440,5.4888000488281250,34.9994010925293000,350.1542053222656000,744.8917846679688000,5.4631938934326170,33.7741889953613300,22,3,158,171,66,2147588201,2148458536,2150632114,2148229009,2157,0,-12,43125
1341929027,6469,43.4700012207031250,5.5543999671936035,35.0007019042968750,350.8908996582031000,743.1044921875000000,5.5253090858459470,33.7147903442382800,22,3,178,193,64,2147752008,2148750354,2151373988,2148510019,2196,0,-12,40523
1341929088,6468,39.9599990844726560,5.5984001159667970,35.0013008117675800,351.8688049316406000,741.8046264648438000,5.5704522132873535,33.6573791503906250,24,3,208,222,66,2147968013,2149101434,2152209983,2148835460,1994,0,-12,38722
1341929152,6468,36.2500000000000000,5.6652002334594730,35.0023994445800800,353.0396118164062500,739.9603271484375000,5.6344599723815920,33.5830497741699200,29,3,234,249,65,2148372054,2149745814,2153682774,2149420758,1661,0,-12,48769
1341929213,6470,32.5499992370605500,5.6876997947692870,35.0032005310058600,353.8348083496094000,739.2031860351562000,5.6607232093811035,33.5421981811523440,30,3,246,253,66,2149136379,2150910925,2156235254,2150460840,1546,0,-12,5126
1341929301,6469,27.3400001525878900,5.8067002296447750,35.0023994445800800,354.2033996582031000,735.6378784179688000,5.7842860221862790,33.4622993469238300,46,3,291,273,65,2151256314,2153986143,2162339044,2153018194,1397,0,-11,28374
1341929362,6469,24.7099990844726560,5.8853001594543460,35.0049018859863300,355.6413879394531000,733.8392944335938000,5.8465518951416020,33.3805809020996100,41,3,373,333,66,2153177023,2156711707,2167292827,2155137545,413,0,-12,21233
1341929426,6470,22.4799995422363280,5.8966999053955080,35.0064010620117200,357.0646057128906000,733.1544799804688000,5.8702468872070310,33.3211097717285160,45,3,366,346,63,2155874682,2160493252,2174108845,2158082723,57,1,-10,22193
1341929487,6469,20.9899997711181640,5.9011998176574710,35.0050010681152340,357.9749145507812500,732.9058227539062000,5.8788490295410160,33.2866783142089840,44,3,350,328,64,2158425256,2163769229,2179648895,2160610339,297,0,-12,65145
1341929575,6470,18.8799991607666000,5.9695000648498535,35.0059013366699200,358.8534851074219000,730.9857177734375000,5.9452419281005860,33.2218284606933600,48,3,313,378,64,2160197101,2164735546,2179298294,2161074554,264,0,-11,48150
1341929637,6470,16.7199993133544920,6.3178000450134280,35.0046005249023440,357.7493896484375000,718.9086303710938000,6.3616561889648440,33.0325508117675800,134,3,341,469,65,2165033686,2169725339,2185938742,2164609247,754,0,-12,20387
1341929717,6472,14.1899995803833000,7.1209998130798340,35.0035018920898440,361.2445983886719000,689.2324218750000000,7.3763852119445800,32.3840408325195300,86,3,389,529,63,2177332740,2182734107,2202214729,2172985832,1040,0,-12,17046
1341929791,6471,12.5100002288818360,9.9238004684448240,35.0139999389648440,361.8324890136719000,620.1384277343750000,9.6957435607910160,31.1983604431152340,91,3,519,622,64,2184891277,2190980593,2212193686,2178013426,1449,0,-13,2106
1341929943,6470,10.5299997329711910,11.1596002578735350,35.0429992675781250,360.8670043945312500,577.0648193359375000,11.1143198013305660,30.5498600006103500,93,3,444,516,63,2211567679,2221132219,2249733046,2197547446,1299,1,-10,31203
1341930038,6468,7.6100001335144040,11.2889003753662110,35.0545997619628900,358.4879150390625000,571.7504882812500000,11.2880201339721680,30.5419502258300780,79,3,250,492,63,2273831839,2289566015,2326555163,2243576712,1012,0,-11,26911
1341930090,6470,4.9400000572204590,11.3743000030517580,35.0544013977050800,357.2569885253906000,568.9334716796875000,11.3799896240234380,30.5370903015136720,83,3,172,449,48,2384191067,2412240992,2462210111,2337939583,1441,4,-11,21508
1341930140,6469,3.5899999141693115,0.0000000000000000,0.0000000000000000,357.1583862304687500,568.7429809570312000,11.3862104415893550,30.5370292663574220,78,3,146,481,48,2426747812,2458139894,2508885933,2381271203,1781,-5,-13,21885
1341930185,6469,1.7899999618530273,0.0000000000000000,0.0000000000000000,356.8279113769531000,566.7109985351562000,11.4524898529052730,30.5164394378662100,132,3,130,449,59,2578710349,2639175867,2698105371,2570269110,1136,-16,-13,54076
